timestamp,wind_dir_avg,wind_spd_avg,wind_spd_max_dir,wind_spd_gust,battery_voltage,lat,long
2022-02-04 00:04:01+00:00,213.0,12.69,212.0,15.38,12.41,47.59359,-54.27349
2022-02-04 00:14:01+00:00,210.0,13.92,211.0,17.46,12.41,47.59359,-54.27349
2022-02-04 00:24:01+00:00,214.0,13.6,213.0,15.17,12.41,47.59359,-54.27349
2022-02-04 00:34:01+00:00,213.0,13.61,210.0,15.24,12.41,47.59359,-54.27349
2022-02-04 00:44:01+00:00,214.0,13.12,216.0,15.09,12.41,47.59359,-54.27349
2022-02-04 00:54:01+00:00,213.0,13.55,211.0,16.3,12.41,47.59359,-54.27349
2022-02-04 01:04:01+00:00,216.0,12.28,213.0,14.69,12.41,47.59359,-54.27349
2022-02-04 01:14:01+00:00,214.0,13.61,209.0,15.32,12.33,47.59359,-54.27349
2022-02-04 01:24:01+00:00,214.0,13.27,210.0,15.37,12.33,47.59359,-54.27349
2022-02-04 01:34:01+00:00,215.0,12.13,214.0,14.15,12.33,47.59359,-54.27349
2022-02-04 01:44:01+00:00,216.0,12.25,213.0,13.96,12.33,47.59359,-54.27349
2022-02-04 01:54:01+00:00,214.0,13.07,210.0,14.77,12.33,47.59359,-54.27349
2022-02-04 02:04:01+00:00,214.0,13.31,214.0,15.14,12.33,47.59359,-54.27349
2022-02-04 02:14:01+00:00,214.0,13.02,212.0,15.16,12.33,47.59359,-54.27349
2022-02-04 02:24:01+00:00,215.0,12.51,215.0,14.25,12.33,47.59359,-54.27349
2022-02-04 02:34:01+00:00,213.0,13.51,211.0,15.57,12.33,47.59359,-54.27349
2022-02-04 02:44:01+00:00,215.0,12.01,216.0,13.63,12.33,47.59359,-54.27349
2022-02-04 02:54:01+00:00,215.0,12.92,211.0,14.92,12.33,47.59359,-54.27349
2022-02-04 03:04:01+00:00,213.0,13.4,210.0,15.76,12.33,47.59359,-54.27349
2022-02-04 03:14:01+00:00,213.0,12.65,212.0,14.3,12.33,47.59359,-54.27349
2022-02-04 03:24:01+00:00,215.0,11.81,214.0,13.83,12.33,47.59359,-54.27349
2022-02-04 03:34:01+00:00,214.0,13.44,214.0,14.6,12.33,47.59359,-54.27349
2022-02-04 03:44:01+00:00,214.0,11.74,213.0,13.39,12.33,47.59359,-54.27349
2022-02-04 03:54:01+00:00,212.0,12.66,208.0,15.37,12.33,47.59359,-54.27349
2022-02-04 04:04:01+00:00,213.0,12.02,212.0,14.29,12.33,47.59359,-54.27349
2022-02-04 04:14:01+00:00,212.0,11.82,213.0,13.24,12.25,47.59359,-54.27349
2022-02-04 04:24:01+00:00,213.0,11.6,213.0,13.14,12.25,47.59359,-54.27349
2022-02-04 04:34:01+00:00,215.0,11.1,216.0,12.52,12.25,47.59359,-54.27349
2022-02-04 04:44:01+00:00,216.0,12.07,206.0,14.72,12.25,47.59359,-54.27349
2022-02-04 04:54:01+00:00,215.0,11.62,211.0,13.38,12.25,47.59359,-54.27349
2022-02-04 05:04:01+00:00,215.0,11.78,212.0,13.08,12.25,47.59359,-54.27349
2022-02-04 05:14:01+00:00,216.0,11.45,213.0,12.81,12.25,47.59359,-54.27349
2022-02-04 05:24:01+00:00,215.0,10.19,210.0,11.87,12.25,47.59359,-54.27349
2022-02-04 05:34:01+00:00,216.0,10.55,218.0,11.64,12.25,47.59359,-54.27349
2022-02-04 05:44:01+00:00,215.0,10.41,216.0,11.18,12.25,47.59359,-54.27349
2022-02-04 05:54:01+00:00,215.0,9.93,219.0,11.61,12.25,47.59359,-54.27349
2022-02-04 06:04:01+00:00,215.0,9.9,215.0,11.08,12.25,47.59359,-54.27349
2022-02-04 06:14:01+00:00,215.0,10.03,215.0,11.45,12.25,47.59359,-54.27349
2022-02-04 06:24:01+00:00,216.0,9.71,217.0,11.18,12.25,47.59359,-54.27349
2022-02-04 06:34:01+00:00,215.0,8.68,216.0,9.43,12.25,47.59359,-54.27349
2022-02-04 06:44:01+00:00,215.0,7.52,219.0,8.67,12.25,47.59359,-54.27349
2022-02-04 06:54:01+00:00,215.0,6.86,222.0,7.49,12.25,47.59359,-54.27349
2022-02-04 07:04:01+00:00,211.0,7.55,211.0,8.39,12.25,47.59359,-54.27349
2022-02-04 07:14:01+00:00,211.0,7.27,215.0,8.37,12.17,47.59359,-54.27349
2022-02-04 07:24:01+00:00,214.0,7.77,209.0,8.91,12.17,47.59359,-54.27349
2022-02-04 07:34:01+00:00,212.0,8.57,212.0,9.25,12.17,47.59359,-54.27349
2022-02-04 07:44:01+00:00,211.0,8.78,209.0,9.61,12.17,47.59359,-54.27349
2022-02-04 07:54:01+00:00,214.0,7.6,213.0,8.39,12.17,47.59359,-54.27349
2022-02-04 08:04:01+00:00,218.0,7.05,221.0,8.17,12.17,47.59359,-54.27349
2022-02-04 08:14:01+00:00,220.0,6.5,224.0,7.23,12.17,47.59359,-54.27349
2022-02-04 08:24:01+00:00,218.0,5.52,217.0,6.21,12.17,47.59359,-54.27349
2022-02-04 08:34:01+00:00,216.0,4.73,216.0,5.33,12.17,47.59359,-54.27349
2022-02-04 08:44:01+00:00,208.0,4.76,215.0,5.23,12.17,47.59359,-54.27349
2022-02-04 08:54:01+00:00,205.0,4.27,208.0,4.52,12.17,47.59359,-54.27349
2022-02-04 09:04:01+00:00,209.0,4.44,208.0,4.88,12.17,47.59359,-54.27349
2022-02-04 09:14:01+00:00,208.0,4.56,209.0,4.81,12.25,47.59359,-54.27349
2022-02-04 09:24:01+00:00,212.0,2.96,212.0,3.45,12.25,47.59359,-54.27349
2022-02-04 09:34:01+00:00,219.0,3.52,228.0,4.15,12.25,47.59359,-54.27349
2022-02-04 09:44:01+00:00,201.0,3.09,214.0,3.62,12.25,47.59359,-54.27349
2022-02-04 09:54:01+00:00,146.0,3.89,142.0,4.42,12.25,47.59359,-54.27349
2022-02-04 10:04:01+00:00,138.0,4.12,140.0,4.45,12.25,47.59359,-54.27349
2022-02-04 10:14:01+00:00,137.0,4.01,136.0,4.29,12.25,47.59359,-54.27349
2022-02-04 10:24:01+00:00,135.0,3.88,137.0,4.27,12.25,47.59359,-54.27349
2022-02-04 10:34:01+00:00,141.0,3.53,134.0,4.22,12.25,47.59359,-54.27349
2022-02-04 10:44:01+00:00,315.0,0.01,142.0,0.0,12.25,47.59359,-54.27349
2022-02-04 10:54:01+00:00,315.0,0.01,142.0,0.0,12.25,47.59359,-54.27349
2022-02-04 11:04:01+00:00,315.0,0.01,142.0,0.0,12.25,47.59359,-54.27349
2022-02-04 11:14:00+00:00,315.0,0.01,142.0,0.0,12.25,47.59359,-54.27349
2022-02-04 11:24:00+00:00,315.0,0.01,142.0,0.0,12.25,47.59359,-54.27349
2022-02-04 11:34:00+00:00,315.0,0.01,142.0,0.0,12.25,47.59359,-54.27349
2022-02-04 11:44:00+00:00,24.0,4.21,19.0,4.8,12.25,47.59359,-54.27349
2022-02-04 11:54:00+00:00,20.0,5.08,23.0,5.69,12.25,47.59359,-54.27349
2022-02-04 12:04:00+00:00,31.0,6.02,31.0,6.52,12.25,47.59359,-54.27349
2022-02-04 12:14:00+00:00,32.0,6.84,52.0,9.77,12.25,47.59359,-54.27349
2022-02-04 12:24:00+00:00,37.0,6.34,38.0,6.94,12.25,47.59359,-54.27349
2022-02-04 12:34:00+00:00,55.0,9.73,59.0,11.68,12.25,47.59359,-54.27349
2022-02-04 12:44:00+00:00,55.0,11.1,57.0,11.94,12.25,47.59359,-54.27349
2022-02-04 12:54:00+00:00,43.0,9.17,53.0,11.35,12.25,47.59359,-54.27349
2022-02-04 13:04:00+00:00,54.0,10.9,54.0,12.24,12.25,47.59359,-54.27349
2022-02-04 13:14:00+00:00,50.0,10.38,50.0,12.36,12.33,47.59359,-54.27349
2022-02-04 13:24:00+00:00,53.0,11.07,53.0,12.7,12.33,47.59359,-54.27349
2022-02-04 13:34:00+00:00,50.0,10.0,56.0,11.75,12.33,47.59359,-54.27349
2022-02-04 13:44:00+00:00,53.0,11.67,54.0,12.57,12.33,47.59359,-54.27349
2022-02-04 13:54:00+00:00,56.0,10.73,58.0,12.13,12.33,47.59359,-54.27349
2022-02-04 14:04:00+00:00,58.0,10.26,59.0,12.05,12.33,47.59359,-54.27349
2022-02-04 14:14:01+00:00,54.0,9.65,60.0,11.55,12.49,47.59359,-54.27349
2022-02-04 14:24:01+00:00,54.0,11.22,56.0,12.69,12.49,47.59359,-54.27349
2022-02-04 14:34:01+00:00,54.0,10.82,57.0,12.67,12.49,47.59359,-54.27349
2022-02-04 14:44:01+00:00,72.0,10.38,67.0,11.34,12.49,47.59359,-54.27349
2022-02-04 14:54:01+00:00,68.0,10.92,65.0,11.78,12.49,47.59359,-54.27349
2022-02-04 15:04:01+00:00,67.0,7.54,75.0,10.46,12.49,47.59359,-54.27349
2022-02-04 15:14:00+00:00,61.0,8.94,67.0,10.97,12.49,47.59359,-54.27349
2022-02-04 15:24:00+00:00,60.0,8.05,66.0,11.09,12.49,47.59359,-54.27349
2022-02-04 15:34:00+00:00,62.0,7.79,70.0,12.04,12.49,47.59359,-54.27349
2022-02-04 15:44:00+00:00,55.0,7.87,68.0,11.16,12.49,47.59359,-54.27349
2022-02-04 15:54:00+00:00,53.0,8.44,66.0,11.11,12.49,47.59359,-54.27349
2022-02-04 16:04:00+00:00,52.0,8.93,60.0,11.71,12.49,47.59359,-54.27349
2022-02-04 16:14:00+00:00,49.0,8.54,63.0,10.42,12.49,47.59359,-54.27349
2022-02-04 16:24:00+00:00,58.0,8.16,65.0,10.15,12.49,47.59359,-54.27349
2022-02-04 16:34:00+00:00,59.0,8.41,58.0,12.58,12.49,47.59359,-54.27349
2022-02-04 16:44:00+00:00,54.0,9.6,60.0,11.47,12.49,47.59359,-54.27349
2022-02-04 16:54:00+00:00,49.0,12.05,54.0,13.51,12.49,47.59359,-54.27349
2022-02-04 17:04:00+00:00,61.0,9.98,60.0,11.72,12.49,47.59359,-54.27349
2022-02-04 17:14:00+00:00,60.0,10.62,61.0,12.21,12.49,47.59359,-54.27349
2022-02-04 17:24:00+00:00,53.0,9.05,62.0,11.51,12.49,47.59359,-54.27349
2022-02-04 17:34:00+00:00,69.0,13.13,75.0,17.1,12.49,47.59359,-54.27349
2022-02-04 17:44:00+00:00,63.0,9.18,64.0,11.61,12.49,47.59359,-54.27349
2022-02-04 17:54:00+00:00,49.0,8.19,52.0,9.8,12.49,47.59359,-54.27349
2022-02-04 18:04:00+00:00,50.0,8.15,58.0,9.91,12.49,47.59359,-54.27349
2022-02-04 18:14:01+00:00,61.0,8.61,59.0,11.79,12.49,47.59359,-54.27349
2022-02-04 18:24:01+00:00,46.0,9.22,59.0,10.84,12.49,47.59359,-54.27349
2022-02-04 18:34:01+00:00,51.0,8.16,52.0,9.79,12.49,47.59359,-54.27349
2022-02-04 18:44:01+00:00,52.0,10.23,53.0,12.31,12.49,47.59359,-54.27349
2022-02-04 18:54:01+00:00,56.0,8.73,66.0,11.71,12.49,47.59359,-54.27349
2022-02-04 19:04:01+00:00,49.0,8.87,47.0,10.59,12.49,47.59359,-54.27349
2022-02-04 19:14:00+00:00,58.0,12.65,58.0,12.66,12.41,47.59359,-54.27349
2022-02-04 19:24:00+00:00,315.0,0.01,58.0,0.0,12.41,47.59359,-54.27349
2022-02-04 19:34:00+00:00,315.0,0.01,58.0,0.0,12.41,47.59359,-54.27349
2022-02-04 19:44:00+00:00,315.0,0.01,58.0,0.0,12.41,47.59359,-54.27349
2022-02-04 19:54:00+00:00,315.0,0.01,58.0,0.0,12.41,47.59359,-54.27349
2022-02-04 20:04:00+00:00,315.0,0.01,58.0,0.0,12.41,47.59359,-54.27349
2022-02-04 20:14:01+00:00,315.0,0.01,58.0,0.0,12.17,47.59359,-54.27349
2022-02-04 20:24:01+00:00,315.0,0.01,58.0,0.0,12.17,47.59359,-54.27349
2022-02-04 20:34:01+00:00,315.0,0.01,58.0,0.0,12.17,47.59359,-54.27349
2022-02-04 20:44:01+00:00,315.0,0.01,58.0,0.0,12.17,47.59359,-54.27349
2022-02-04 20:54:01+00:00,315.0,0.01,58.0,0.0,12.17,47.59359,-54.27349
2022-02-04 21:04:01+00:00,315.0,0.01,58.0,0.0,12.17,47.59359,-54.27349
2022-02-04 21:14:00+00:00,315.0,0.01,58.0,0.0,12.17,47.59359,-54.27349
2022-02-04 21:24:00+00:00,315.0,0.01,58.0,0.0,12.17,47.59359,-54.27349
2022-02-04 21:34:00+00:00,315.0,0.01,58.0,0.0,12.17,47.59359,-54.27349
2022-02-04 21:44:00+00:00,315.0,0.01,58.0,0.0,12.17,47.59359,-54.27349
2022-02-04 21:54:00+00:00,315.0,0.01,58.0,0.0,12.17,47.59359,-54.27349
2022-02-04 22:04:00+00:00,315.0,0.01,58.0,0.0,12.17,47.59359,-54.27349
2022-02-04 22:14:00+00:00,315.0,0.01,58.0,0.0,12.17,47.59359,-54.27349
2022-02-04 22:24:00+00:00,315.0,0.01,58.0,0.0,12.17,47.59359,-54.27349
2022-02-04 22:34:00+00:00,315.0,0.01,58.0,0.0,12.17,47.59359,-54.27349
2022-02-04 22:44:00+00:00,315.0,0.01,58.0,0.0,12.17,47.59359,-54.27349
2022-02-04 22:54:00+00:00,315.0,0.01,58.0,0.0,12.17,47.59359,-54.27349
2022-02-04 23:04:00+00:00,315.0,0.01,58.0,0.0,12.17,47.59359,-54.27349
2022-02-04 23:14:01+00:00,315.0,0.01,58.0,0.0,12.17,47.59359,-54.27349
2022-02-04 23:24:01+00:00,315.0,0.01,58.0,0.0,12.17,47.59359,-54.27349
2022-02-04 23:34:01+00:00,315.0,0.01,58.0,0.0,12.17,47.59359,-54.27349
2022-02-04 23:44:01+00:00,315.0,0.01,58.0,0.0,12.17,47.59359,-54.27349
2022-02-04 23:54:01+00:00,315.0,0.01,58.0,0.0,12.17,47.59359,-54.27349
